Orbital Elements
The following orbital elements are taken from MPC 66700:
Epoch 2008 Aug. 2.0 TT = JDT 2454680.5
T 2008 Aug. 20.8724 TT MPC
q 2.974836 (2000.0) P Q
z +0.001394 Peri. 206.0053 -0.7688582 +0.6283479
+/-0.000000 Node 14.8689 -0.4759580 -0.4386689
e 0.995852 Incl. 27.4964 -0.4269908 -0.6424551
From 1445 observations 2007 Jan. 23-2009 July 28, mean residual 0".5.
|